Location: Praha
(50.0830°N, 14.4670°E)
Time: 04:42:22
(UTC+02:00)

ISS - Pass Details

Date: 25 March 2020
Orbit: 417 x 423 km, 51.6° (Epoch: 29 March)

Event Time Altitude Azimuth Distance (km) Brightness Sun altitude
Rises 20:38:54 0° 276° (W) 2,360 1.2 -21.3°
Reaches altitude 10° 20:41:00 10° 280° (W) 1,497 0.0 -21.5°
Enters shadow 20:43:59 59° 323° (NW) 490 -3.3 -21.9°
